Regional Weather Roundup
Issued by NWS Lake Charles, LA

Home | Current Version | Previous Version | Text Only | Print | Product List | Glossary On
Versions: 1 2 3 4 5 6 7 8 9 10 11 12 13 14 15 16 17 18 19 20 21 22 23 24 25 26 27 28 29 30 31 32 33 34 35 36 37 38 39 40 41 42 43 44 45 46 47 48
000
ASUS44 KLCH 300610
RWRLCH
RWRLCH
REGIONAL WEATHER ROUNDUP
NATIONAL WEATHER SERVICE LAKE CHARLES LA
100 AM CDT TUE SEP 30 2014

Note: "fair" indicates few or no clouds below 12,000 feet with no
significant weather and/or obstructions to visibility.


ACROSS SOUTHEAST TEXAS

CITY           SKY/WX    TMP DP  RH WIND       PRES   REMARKS
BEAUMONT       CLEAR     77  72  84 NE5       29.86F
BEAUMONT CITY  MOCLDY    74  72  93 CALM      29.87F
ORANGE         MOCLDY    74  74 100 CALM      29.88F
JASPER         CLEAR     70  69  94 CALM      29.90F
$$

ACROSS CENTRAL LOUISIANA

CITY           SKY/WX    TMP DP  RH WIND       PRES   REMARKS
LEESVILLE      CLEAR     72  69  92 NE5       29.88F
FULLERTON      CLOUDY    71  68  90 CALM      29.86F
ALEXANDRIA INT CLEAR     70  68  93 CALM      29.87F
ESLER FIELD    PTCLDY    70  69  97 CALM      29.88F FOG
DERIDDER         N/A     73  70  89 CALM      29.89F
OAKDALE        CLEAR     70  69  96 CALM      29.88F FOG
OPELOUSAS      FOG       70  69  99 CALM      29.88S VSB 1/2
$$

ACROSS SOUTHWEST AND SOUTH CENTRAL LOUISIANA

CITY           SKY/WX    TMP DP  RH WIND       PRES   REMARKS
SULPHUR        CLEAR     76  74  91 E3        29.87F
LAKE CHARLES   CLEAR     74  71  91 NE3       29.86F
CHENNAULT INT  CLEAR     74  72  94 NE3       29.87F
CAMERON PHI    CLEAR     75  73  94 E3        29.89F
DEQUINCY         N/A     73  71  94 CALM      29.87F
JENNINGS         N/A     72  72  98 CALM      29.87F
LAFAYETTE      CLEAR     73  72  96 NE3       29.87F
NEW IBERIA     CLEAR     74  72  93 NW3       29.88S
ABBEVILLE        N/A     71  70  99 CALM      29.87F FOG
PATTERSON      CLEAR     72  72 100 CALM      29.89F
SALT POINT       N/A     77  74  90 CALM      29.86F
$$

SELECTED SITES ACROSS THE REGION

CITY           SKY/WX    TMP DP  RH WIND       PRES   REMARKS
HOUSTON BUSH   PTCLDY    74  71  91 E5        29.86F
HOUSTON HOBBY  PTCLDY    75  73  93 CALM      29.86F
GALVESTON      CLEAR     77  74  90 NE3       29.86F
COLLEGE STAT   CLEAR     75  68  78 CALM      29.88S
CONROE         CLEAR     69  68  96 CALM      29.88F
HUNTSVILLE     CLEAR     73  69  87 CALM      29.89S
LUFKIN         CLEAR     75  69  81 CALM      29.89S
SHREVEPORT     PTCLDY    71  65  81 CALM      29.90S
MONROE         CLEAR     71  63  75 NE5       29.91S
NATCHEZ MS     CLEAR     72  70  94 CALM      29.90S
BATON ROUGE    CLEAR     71  69  93 CALM      29.87F
N.O. INTL ARPT PTCLDY    76  72  87 CALM      29.86F
SLIDELL        CLEAR     71  69  93 CALM      29.87S
$$

MARINE REPORTS

STATION/POSITION TIME  TEMP    WIND        PRES    VSBY  WAVE
                       AIR SEA DIR/SP/G                  HT/PER
                 (UTC) (F)     (DEG/KT/KT) (MB)    (MI)  (FT/S)
BUOY 30 S HIGH I 0600   80 81   80/  4/  6 1010.6F         1/ 7
SEA RIM ST PARK  0600   76      40/  3/  3 1011.5F
PORT ARTHUR      0600      80   70/  4/  7 1011.2F
SABINE PASS N    0600   77 79   50/  5/  6 1011.2F
TEXAS POINT      0600   76 80   30/  5/  5 1011.3F
CALCASIEU PASS   0600   76 80  100/  5/  6   N/A
LK CHARLES BEACH 0600   76 81              1011.4F
MARSH ISLAND     NOT AVBL
FRESH WATER LOCK 0600   77 81   80/  3/  3 1011.1F
AMERADA PASS     0600   75 79     CALM     1011.3F
$$


USA.gov is the U.S. government's official web portal to all federal, state and local government web resources and services.